[[{"header":{"parameterUnit":"m.s-1","parameterCategory":1,"la1":30.2991,"la2":30.254,"lo1":-89.0895,"lo2":-89.0444,"dx":0.0017,"dy":0.0017,"nx":28,"ny":28,"refTime":"2022-12-05T15:00:00:Z","depth":0,"parameterNumber":2,"parameterNumberName":"U-component_of_WINDS"},"data":[0,0,0,0,0,0,0,0,0,0,0,0,0,0,0,0,0,0,0,0,0,0,0,0,0,0,0,0,0,0,0,0,0,0,0,0,0,0,0,0,0,0,0,0,0,0,0,0,0,0,0,0,0,0,0,0,0,0,-0.651,-0.6509,0,-0.6458,-0.6458,-0.6457,-0.6431,-0.6431,-0.6431,-0.6431,-0.6377,-0.6375,-0.6374,0,0,0,0,0,0,0,0,0,0,0,0,0,-0.6583,-0.6582,-0.651,-0.6509,-0.6509,-0.6459,-0.6458,-0.6457,-0.6431,-0.6431,-0.6431,-0.6431,-0.6377,-0.6375,-0.6374,0,0,0,0,0,0,0,0,0,0,0,0,0,-0.6543,-0.6582,-0.651,-0.649,-0.6487,-0.6459,-0.6458,-0.6457,-0.6431,-0.6431,-0.6431,-0.6431,-0.6378,-0.6376,-0.6374,-0.636,0,0,-0.6367,-0.6366,0,0,0,0,0,0,0,0,-0.6546,-0.6541,-0.6493,-0.6491,-0.6488,-0.6451,-0.6464,-0.6424,-0.6431,-0.6453,-0.6431,-0.6431,-0.6401,-0.6397,-0.6388,-0.6358,-0.6355,-0.6367,-0.6365,-0.6364,-0.6364,0,0,0,0,0,0,0,-0.6549,-0.6543,-0.6489,-0.6493,-0.649,-0.6482,-0.6477,-0.6456,-0.6428,-0.6451,-0.6449,-0.6443,-0.64,-0.639,-0.6386,-0.6355,-0.6367,-0.6365,-0.6363,-0.6363,-0.631,-0.631,0,0,0,0,0,0,-0.6555,-0.6545,-0.6491,-0.6488,-0.6518,-0.6481,-0.6475,-0.6463,-0.6428,-0.6422,-0.6443,-0.6442,-0.6394,-0.6389,-0.6384,-0.6365,-0.6364,-0.6362,-0.6361,-0.631,-0.631,-0.631,0,0,0,0,0,0,-0.6557,-0.655,-0.6493,-0.6516,-0.6508,-0.648,-0.6467,-0.6462,-0.6452,-0.6422,-0.6417,-0.6438,-0.6393,-0.6387,-0.6366,-0.6363,-0.6361,-0.6359,-0.631,-0.631,-0.631,-0.6329,0,0,0,0,0,0,-0.6559,-0.6551,-0.6547,-0.6516,-0.6507,-0.6477,-0.6467,-0.6461,-0.6449,-0.6447,-0.6416,-0.6411,-0.6393,-0.637,-0.6364,-0.636,-0.6358,-0.631,-0.631,-0.631,-0.6328,-0.6329,-0.633,0,0,0,0,0,-0.6562,-0.6554,-0.6546,-0.654,-0.6501,-0.6477,-0.6472,-0.6452,-0.6448,-0.6443,-0.6424,-0.6412,-0.6365,-0.6368,-0.6361,-0.6357,-0.631,-0.631,-0.631,-0.6328,-0.6329,-0.633,0,0,0,0,0,0,-0.6584,-0.6549,-0.6541,-0.6523,-0.6503,-0.6473,-0.6465,-0.6454,-0.6434,-0.6433,-0.6408,-0.6402,-0.6383,-0.6368,-0.6372,-0.6341,-0.6336,-0.6335,-0.6352,-0.6353,-0.6354,-0.6358,-0.6356,0,0,0,0,0,-0.6587,-0.6571,-0.6542,-0.6529,-0.6519,-0.6494,-0.6483,-0.6469,-0.6447,-0.6439,-0.6418,-0.6396,-0.6376,-0.6364,-0.6344,-0.6326,-0.6318,-0.6319,-0.632,-0.6321,-0.632,-0.6308,-0.6308,-0.6309,-0.6309,-0.6309,0,0,-0.6593,-0.6572,-0.6564,-0.6533,-0.6516,-0.6499,-0.6487,-0.647,-0.6457,-0.6436,-0.6415,-0.6399,-0.6373,-0.6353,-0.6343,-0.634,-0.6318,-0.6321,-0.6322,-0.632,-0.6308,-0.6308,-0.6308,-0.6309,-0.6309,-0.6309,0,0,-0.6595,-0.6578,-0.6565,-0.6548,-0.6522,-0.6506,-0.6503,-0.6473,-0.6462,-0.644,-0.6424,-0.6407,-0.6374,-0.6356,-0.6343,-0.6337,-0.6325,-0.6331,-0.6336,-0.6324,-0.6324,-0.6324,-0.6321,-0.632,-0.633,-0.633,-0.633,0,-0.6605,-0.658,-0.656,-0.6543,-0.653,-0.651,-0.6496,-0.648,-0.6449,-0.644,-0.6437,-0.6394,-0.6375,-0.635,-0.6349,-0.6339,-0.6334,-0.6334,-0.6326,-0.6326,-0.6325,-0.6322,-0.6321,-0.6331,-0.6331,-0.6331,-0.6331,0,-0.6594,-0.6576,-0.6569,-0.6539,-0.6525,-0.651,-0.6486,-0.6474,-0.6461,-0.6445,-0.6422,-0.6399,-0.6374,-0.6367,-0.6354,-0.634,-0.6338,-0.6331,-0.6325,-0.6326,-0.6323,-0.6321,-0.6332,-0.6332,-0.6332,-0.6331,0,0,-0.6609,-0.6568,-0.6565,-0.6551,-0.6521,-0.6507,-0.649,-0.6466,-0.6455,-0.6434,-0.6419,-0.6391,-0.6384,-0.6369,-0.6354,-0.6344,-0.6339,-0.6337,-0.6336,-0.6338,-0.6321,-0.6326,-0.6325,-0.6331,-0.6331,-0.6331,-0.6322,0,-0.6606,-0.6576,-0.6557,-0.6534,-0.6517,-0.6498,-0.6483,-0.6462,-0.6446,-0.6428,-0.641,-0.639,-0.6383,-0.6373,-0.6362,-0.6342,-0.6335,-0.6343,-0.6316,-0.6315,-0.6322,-0.6323,-0.6329,-0.6322,-0.6321,-0.6321,-0.6321,0,-0.6599,-0.6578,-0.6554,-0.6525,-0.6517,-0.6504,-0.648,-0.6464,-0.6439,-0.6428,-0.6411,-0.6396,-0.6376,-0.6372,-0.6344,-0.635,-0.6338,-0.6326,-0.6325,-0.6321,-0.6318,-0.6319,-0.632,-0.6319,-0.6319,-0.6319,-0.6319,0,-0.6611,-0.6578,-0.6558,-0.6547,-0.6513,-0.6504,-0.6489,-0.6465,-0.6451,-0.643,-0.642,-0.6397,-0.6383,-0.6365,-0.6343,-0.6343,-0.6317,-0.6312,-0.6306,-0.6307,-0.6302,-0.6302,-0.63,-0.6295,-0.6295,-0.6295,-0.6295,0,-0.6609,-0.6595,-0.6563,-0.6552,-0.6535,-0.6512,-0.6496,-0.6479,-0.6457,-0.6441,-0.6423,-0.6408,-0.6381,-0.6362,-0.6345,-0.6324,-0.6318,-0.6308,-0.6303,-0.6309,-0.631,-0.63,-0.63,-0.6295,-0.6295,-0.6295,-0.6295,0,-0.662,-0.6598,-0.6576,-0.6545,-0.6537,-0.6526,-0.6499,-0.6486,-0.6469,-0.6449,-0.6443,-0.6415,-0.6392,-0.6369,-0.6338,-0.6326,-0.6305,-0.6299,-0.6314,-0.6311,-0.6307,-0.6307,-0.6298,-0.6295,-0.6292,-0.6292,-0.6292,0,-0.662,-0.6609,-0.6577,-0.6565,-0.655,-0.6532,-0.6517,-0.6494,-0.648,-0.6451,-0.6442,-0.6417,-0.6397,-0.6361,-0.6338,-0.6313,-0.6306,-0.6305,-0.6303,-0.6309,-0.6305,-0.6306,-0.6304,-0.6305,-0.6306,-0.6306,-0.6306,0,-0.6623,-0.6612,-0.6593,-0.6569,-0.6553,-0.6533,-0.6513,-0.6504,-0.6477,-0.6462,-0.6438,-0.6422,-0.6391,-0.6366,-0.6339,-0.6323,-0.6309,-0.6307,-0.6304,-0.631,-0.6318,-0.6312,-0.6315,-0.6307,-0.6307,-0.6307,-0.6307,-0.6307,-0.6627,-0.6616,-0.6591,-0.657,-0.6552,-0.6533,-0.652,-0.65,-0.6481,-0.6453,-0.6441,-0.6417,-0.6392,-0.6354,-0.6338,-0.6318,-0.6315,-0.6311,-0.631,-0.6309,-0.631,-0.6322,-0.6313,-0.6313,-0.6313,-0.6313,-0.6313,0,-0.6628,-0.6611,-0.6592,-0.6564,-0.6547,-0.6536,-0.6513,-0.6499,-0.6478,-0.6456,-0.6436,-0.6409,-0.6385,-0.636,-0.6334,-0.6323,-0.6316,-0.6317,-0.6317,-0.6314,-0.6315,-0.632,-0.6323,-0.6323,-0.6323,-0.6323,-0.6323,-0.6323,-0.6626,-0.6606,-0.6592,-0.6563,-0.6546,-0.6523,-0.651,-0.6492,-0.6474,-0.6445,-0.6425,-0.6409,-0.6385,-0.6357,-0.6335,-0.6328,-0.6319,-0.6321,-0.6312,-0.6314,-0.6314,-0.6313,-0.6317,-0.632,-0.632,-0.6312,-0.6312,-0.6312]},{"header":{"parameterUnit":"m.s-1","parameterCategory":1,"la1":30.2991,"la2":30.254,"lo1":-89.0895,"lo2":-89.0444,"dx":0.0017,"dy":0.0017,"nx":28,"ny":28,"refTime":"2022-12-05T15:00:00:Z","depth":0,"parameterNumber":3,"parameterNumberName":"V-component_of_WINDS"},"data":[0,0,0,0,0,0,0,0,0,0,0,0,0,0,0,0,0,0,0,0,0,0,0,0,0,0,0,0,0,0,0,0,0,0,0,0,0,0,0,0,0,0,0,0,0,0,0,0,0,0,0,0,0,0,0,0,0,0,3.3311,3.3312,0,3.3377,3.3377,3.3378,3.3368,3.3367,3.3366,3.3365,3.3429,3.3432,3.3435,0,0,0,0,0,0,0,0,0,0,0,0,0,3.3175,3.3178,3.3311,3.3312,3.3313,3.3376,3.3377,3.3378,3.3369,3.3367,3.3366,3.3365,3.3429,3.3432,3.3435,0,0,0,0,0,0,0,0,0,0,0,0,0,3.3237,3.3178,3.3311,3.3315,3.3317,3.3376,3.3377,3.3379,3.3369,3.3367,3.3366,3.3364,3.3428,3.3432,3.3436,3.3494,0,0,3.3448,3.345,0,0,0,0,0,0,0,0,3.3233,3.3242,3.3314,3.3315,3.3317,3.3363,3.3353,3.3417,3.3369,3.3349,3.3365,3.3363,3.3408,3.3414,3.343,3.3497,3.35,3.3448,3.3451,3.3453,3.3454,0,0,0,0,0,0,0,3.3229,3.3239,3.3337,3.3315,3.3317,3.3314,3.3321,3.3365,3.3387,3.3351,3.335,3.3358,3.3409,3.3426,3.3431,3.3501,3.3448,3.3452,3.3455,3.3456,3.3621,3.3623,0,0,0,0,0,0,3.3224,3.3235,3.3335,3.3339,3.327,3.3317,3.3325,3.3349,3.3387,3.3391,3.3359,3.3357,3.342,3.3426,3.3433,3.3506,3.3453,3.3457,3.3459,3.3619,3.3621,3.3623,0,0,0,0,0,0,3.3221,3.3233,3.3332,3.3287,3.3299,3.3322,3.3349,3.3352,3.3369,3.3393,3.3397,3.3373,3.3419,3.3428,3.348,3.3508,3.3458,3.3462,3.3617,3.362,3.3622,3.3651,0,0,0,0,0,0,3.3217,3.3232,3.3254,3.3288,3.3302,3.3378,3.3351,3.3354,3.3376,3.3374,3.3407,3.3411,3.3418,3.3474,3.3484,3.3513,3.3465,3.3614,3.3618,3.3621,3.3648,3.3654,3.366,0,0,0,0,0,3.3212,3.3259,3.3256,3.3268,3.3331,3.3379,3.3388,3.3396,3.3379,3.3402,3.3418,3.341,3.3503,3.3479,3.349,3.3521,3.3612,3.3617,3.3621,3.3645,3.3653,3.366,0,0,0,0,0,0,3.3227,3.3263,3.326,3.3319,3.3347,3.3378,3.3407,3.3404,3.3436,3.3433,3.344,3.3448,3.3501,3.3516,3.3488,3.3581,3.3555,3.3562,3.3569,3.3578,3.3584,3.358,3.3469,0,0,0,0,0,3.3237,3.3275,3.3304,3.3353,3.3367,3.3385,3.3406,3.341,3.3438,3.345,3.3469,3.3496,3.3532,3.3555,3.3589,3.3649,3.3657,3.3676,3.3682,3.3687,3.3694,3.3729,3.3738,3.3637,3.3637,3.3637,0,0,3.3259,3.3283,3.3306,3.3357,3.3378,3.3417,3.3395,3.3435,3.3464,3.3455,3.3507,3.3522,3.3553,3.361,3.3636,3.3624,3.3723,3.3693,3.3697,3.37,3.3734,3.3743,3.3752,3.364,3.364,3.3639,0,0,3.3318,3.334,3.3384,3.3407,3.3441,3.3453,3.3463,3.3495,3.3506,3.3557,3.3553,3.3586,3.3646,3.3669,3.3689,3.3758,3.3753,3.3768,3.3802,3.3836,3.3844,3.3851,3.3878,3.3887,3.3774,3.3774,3.3774,0,3.3341,3.3399,3.3407,3.345,3.3473,3.3468,3.3514,3.3534,3.3577,3.3593,3.3579,3.3656,3.3676,3.374,3.3757,3.3772,3.3785,3.3766,3.3843,3.385,3.3857,3.3882,3.3892,3.3776,3.3776,3.3776,3.3775,0,3.3426,3.3467,3.3498,3.3542,3.3568,3.3611,3.3626,3.3651,3.3653,3.3666,3.3719,3.3743,3.3783,3.3798,3.3799,3.3862,3.3854,3.3841,3.3816,3.3868,3.3892,3.3902,3.3779,3.3778,3.3778,3.3777,0,0,3.3498,3.3546,3.3558,3.3578,3.3616,3.3647,3.369,3.373,3.3753,3.3782,3.3819,3.3871,3.386,3.3882,3.3886,3.3915,3.3971,3.3899,3.39,3.3914,3.4044,3.4055,3.4067,3.3967,3.3969,3.397,3.4042,0,3.3563,3.3641,3.365,3.372,3.3759,3.3755,3.3793,3.3819,3.3833,3.3867,3.388,3.3918,3.39,3.3914,3.3942,3.3959,3.3998,3.3953,3.4003,3.4004,3.3998,3.4079,3.4091,3.4158,3.4052,3.4053,3.4054,0,3.3649,3.3684,3.3758,3.3792,3.3808,3.3842,3.3881,3.3913,3.3943,3.3951,3.3976,3.3976,3.4021,3.3993,3.4055,3.4024,3.4045,3.4056,3.4059,3.4065,3.4034,3.409,3.4179,3.419,3.4069,3.4068,3.4067,0,3.3697,3.3761,3.3815,3.3832,3.3872,3.3896,3.3914,3.3943,3.3967,3.4,3.4016,3.4052,3.4073,3.4102,3.4112,3.409,3.4174,3.4146,3.4183,3.4183,3.4202,3.4202,3.4298,3.4211,3.4211,3.4211,3.4211,0,3.3771,3.3817,3.3837,3.3871,3.3922,3.3931,3.3982,3.3998,3.4024,3.406,3.4057,3.4091,3.4101,3.4137,3.4144,3.4196,3.4204,3.4212,3.4214,3.4214,3.4214,3.4229,3.4226,3.4214,3.4213,3.4213,3.4212,0,3.3834,3.3849,3.3908,3.3941,3.3951,3.3988,3.4016,3.4048,3.4061,3.4106,3.4118,3.4137,3.4179,3.4192,3.4241,3.4246,3.4307,3.4303,3.4298,3.4299,3.4335,3.4333,3.4447,3.4464,3.4364,3.4365,3.4366,0,3.3881,3.3917,3.3955,3.398,3.3999,3.4038,3.4063,3.4073,3.41,3.4138,3.4165,3.4206,3.4241,3.4307,3.4325,3.4363,3.4362,3.44,3.4368,3.4367,3.4366,3.4365,3.4369,3.4406,3.4407,3.4408,3.4409,0,3.3964,3.397,3.4007,3.4048,3.4078,3.411,3.414,3.416,3.4175,3.4204,3.4248,3.4274,3.4326,3.4367,3.4406,3.4423,3.4419,3.4419,3.443,3.4431,3.4428,3.4433,3.4317,3.4416,3.4416,3.4415,3.4415,3.4414,3.4022,3.4055,3.4088,3.4129,3.4154,3.4183,3.4215,3.4232,3.4269,3.4313,3.4316,3.4364,3.4393,3.4446,3.4465,3.4502,3.4491,3.4506,3.451,3.4514,3.4519,3.442,3.4508,3.4508,3.4508,3.4508,3.4508,0,3.4107,3.4128,3.4166,3.4211,3.4244,3.4237,3.4271,3.4299,3.4341,3.437,3.4404,3.4454,3.4495,3.4517,3.4557,3.4583,3.4582,3.4593,3.4593,3.4597,3.4525,3.4513,3.4593,3.4593,3.4593,3.4593,3.4593,3.4593,3.4155,3.4211,3.4221,3.4289,3.4309,3.4357,3.4377,3.4404,3.4428,3.4485,3.4519,3.4533,3.456,3.4602,3.4639,3.4644,3.466,3.4673,3.4677,3.461,3.4602,3.4593,3.4582,3.4676,3.4676,3.4747,3.4747,3.4748]}]]